Location: Brusselsch Zeekanaal
(50.8667°N, 4.3667°E)
Time: 06:27:21
(UTC+00:00)

ARGOS - Pass Details

Date: 08 November 2025
Orbit: 819 x 832 km, 98.5° (Epoch: 11 December)

Event Time Altitude Azimuth Distance (km) Brightness Sun altitude
Rises 04:06:46 0° 13° (NNE) 3,390 6.6 -25.3°
Reaches altitude 10° 04:09:08 10° 12° (NNE) 2,453 5.8 -24.9°
Maximum altitude 04:14:34 74° 288° (WNW) 871 3.0 -24.1°
Enters shadow 04:16:17 44° 216° (SW) 1,134 3.5 -23.8°
